| time (UTC) | temp F | wind direction | speed MPH | gust MPH | rain 1hr in | rain 24hr in | rain mn in | humidity % | barometer mb |
| 20260510071628 | 59 | 230 | 3.0 | 6.0 | 0.01 | 1.48 | 0.01 | 67 | 1012.5 |
| 20260510070109 | 57 | 227 | 5.0 | 7.0 | 0.01 | 1.48 | 0.01 | 74 | 1012.2 |
| 20260510064613 | 56 | 136 | 0.0 | 3.0 | 0.01 | 1.48 | 0.01 | 81 | 1012.2 |
| 20260510063129 | 53 | 347 | 0.0 | 2.0 | 0.01 | 1.48 | 0.01 | 88 | 1012.0 |
| 20260510061533 | 51 | 347 | 1.0 | 2.0 | 0.00 | 1.47 | 0.00 | 86 | 1012.2 |
| 20260510060151 | 50 | 347 | 0.0 | 2.0 | 0.00 | 1.47 | 0.00 | 91 | 1012.2 |
| 20260510054651 | 48 | 324 | 0.0 | 2.0 | 0.00 | 1.47 | 0.00 | 92 | 1011.9 |
| 20260510053157 | 47 | 356 | 1.0 | 2.0 | 0.00 | 1.47 | 0.00 | 92 | 1011.8 |
| 20260510051505 | 47 | 121 | 0.0 | 2.0 | 0.00 | 1.47 | 0.00 | 92 | 1011.9 |
| 20260510050040 | 47 | 284 | 1.0 | 2.0 | 0.00 | 1.47 | 0.00 | 92 | 1011.7 |
| 20260510044604 | 47 | 284 | 0.0 | 2.0 | 0.00 | 1.47 | 0.00 | 92 | 1011.7 |
| 20260510043117 | 47 | 284 | 0.0 | 5.0 | 0.00 | 1.47 | 0.00 | 92 | 1011.7 |
| 20260510041637 | 47 | 266 | 3.0 | 4.0 | 0.00 | 1.47 | 0.00 | 93 | 1011.5 |
| 20260510040017 | 47 | 264 | 1.0 | 2.0 | 0.00 | 1.47 | 0.00 | 94 | 1011.4 |
| 20260510034606 | 47 | 264 | 0.0 | 2.0 | 0.00 | 1.47 | 0.00 | 94 | 1011.5 |
| 20260510033122 | 47 | 281 | 0.0 | 4.0 | 0.00 | 1.47 | 0.00 | 94 | 1011.4 |
| 20260510031631 | 47 | 251 | 1.0 | 5.0 | 0.00 | 1.47 | 0.00 | 95 | 1011.5 |
| 20260510030119 | 47 | 267 | 2.0 | 4.0 | 0.00 | 1.47 | 0.00 | 94 | 1011.5 |
| 20260510024632 | 48 | 262 | 1.0 | 4.0 | 0.00 | 1.47 | 0.00 | 94 | 1011.7 |
| 20260510023134 | 48 | 342 | 1.0 | 4.0 | 0.00 | 1.47 | 0.00 | 94 | 1011.7 |
| 20260510021647 | 48 | 253 | 0.0 | 4.0 | 0.00 | 1.47 | 0.00 | 94 | 1011.8 |
| 20260510020151 | 48 | 277 | 0.0 | 2.0 | 0.00 | 1.47 | 0.00 | 94 | 1011.9 |
| 20260510014624 | 48 | 280 | 0.0 | 3.0 | 0.00 | 1.47 | 0.00 | 94 | 1011.8 |
| 20260510013103 | 49 | 268 | 2.0 | 3.0 | 0.00 | 1.47 | 0.00 | 94 | 1011.9 |
| 20260510011622 | 49 | 268 | 0.0 | 4.0 | 0.00 | 1.47 | 0.00 | 94 | 1012.0 |
| 20260510010108 | 49 | 263 | 3.0 | 6.0 | 0.00 | 1.47 | 0.00 | 94 | 1012.1 |
| 20260510004622 | 49 | 187 | 1.0 | 2.0 | 0.00 | 1.47 | 0.00 | 93 | 1012.4 |
| 20260510003126 | 49 | 291 | 2.0 | 3.0 | 0.00 | 1.47 | 0.00 | 93 | 1012.4 |
| 20260510000156 | 50 | 266 | 0.0 | 3.0 | 0.00 | 1.47 | 0.00 | 93 | 1012.5 |
| 20260509234556 | 50 | 262 | 1.0 | 2.0 | 0.00 | 1.47 | 0.00 | 92 | 1012.6 |
| 20260509233100 | 51 | 262 | 0.0 | 3.0 | 0.00 | 1.47 | 0.00 | 92 | 1012.7 |
| 20260509231630 | 51 | 271 | 1.0 | 2.0 | 0.00 | 1.47 | 0.00 | 92 | 1012.7 |
| 20260509230012 | 51 | 271 | 0.0 | 3.0 | 0.00 | 1.47 | 0.00 | 91 | 1012.8 |
| 20260509224515 | 52 | 185 | 1.0 | 4.0 | 0.00 | 1.47 | 0.00 | 91 | 1012.8 |
| 20260509223108 | 52 | 264 | 2.0 | 8.0 | 0.00 | 1.47 | 0.00 | 91 | 1012.9 |
| 20260509221629 | 52 | 248 | 3.0 | 7.0 | 0.00 | 1.47 | 0.00 | 91 | 1012.9 |
| 20260509220004 | 53 | 221 | 2.0 | 3.0 | 0.00 | 1.47 | 1.47 | 91 | 1012.9 |
| 20260509214624 | 53 | 247 | 2.0 | 7.0 | 0.00 | 1.47 | 1.47 | 91 | 1012.9 |
| 20260509211518 | 52 | 261 | 4.0 | 8.0 | 0.00 | 1.47 | 1.47 | 94 | 1013.1 |
| 20260509210024 | 52 | 215 | 0.0 | 2.0 | 0.00 | 1.47 | 1.47 | 93 | 1013.2 |
| 20260509204549 | 52 | 214 | 2.0 | 4.0 | 0.00 | 1.47 | 1.47 | 93 | 1013.1 |
| 20260509201519 | 51 | 256 | 2.0 | 4.0 | 0.00 | 1.47 | 1.47 | 93 | 1012.7 |
| 20260509194510 | 52 | 276 | 2.0 | 4.0 | 0.00 | 1.47 | 1.47 | 92 | 1012.6 |
| 20260509193031 | 53 | 358 | 1.0 | 6.0 | 0.00 | 1.47 | 1.47 | 92 | 1012.0 |
| 20260509191555 | 53 | 306 | 0.0 | 2.0 | 0.00 | 1.47 | 1.47 | 91 | 1011.9 |
| 20260509190111 | 54 | 281 | 1.0 | 3.0 | 0.00 | 1.47 | 1.47 | 91 | 1011.9 |
| 20260509184635 | 56 | 21 | 0.0 | 4.0 | 0.00 | 1.47 | 1.47 | 90 | 1011.5 |
| 20260509183124 | 56 | 17 | 4.0 | 5.0 | 0.00 | 1.47 | 1.47 | 89 | 1011.3 |
| 20260509181643 | 57 | 35 | 3.0 | 6.0 | 0.00 | 1.47 | 1.47 | 89 | 1011.3 |
| 20260509180151 | 57 | 327.0 | 255.0 | 0.00 | 1.47 | 1.47 | 88 | 1011.1 | |
| 20260509174537 | 57 | 87 | 1.0 | 2.0 | 0.00 | 1.47 | 1.47 | 87 | 1011.2 |
| 20260509173101 | 58 | 29 | 2.0 | 5.0 | 0.00 | 1.47 | 1.47 | 86 | 1010.9 |
| 20260509171658 | 58 | 68 | 5.0 | 9.0 | 0.00 | 1.47 | 1.47 | 86 | 1010.8 |
| 20260509170128 | 59 | 48 | 2.0 | 7.0 | 0.00 | 1.47 | 1.47 | 80 | 1010.6 |
| 20260509164656 | 59 | 29 | 3.0 | 6.0 | 0.00 | 1.47 | 1.47 | 80 | 1010.6 |
| 20260509163011 | 59 | 342 | 1.0 | 5.0 | 0.00 | 1.47 | 1.47 | 81 | 1010.6 |
| 20260509161529 | 58 | 65 | 0.0 | 3.0 | 0.00 | 1.47 | 1.47 | 82 | 1010.5 |
| 20260509160006 | 57 | 264 | 3.0 | 6.0 | 0.00 | 1.47 | 1.47 | 85 | 1010.7 |
| 20260509154542 | 57 | 15 | 1.0 | 7.0 | 0.00 | 1.47 | 1.47 | 88 | 1010.6 |
| 20260509153103 | 56 | 239 | 3.0 | 4.0 | 0.02 | 1.47 | 1.47 | 89 | 1010.6 |
| 20260509151620 | 56 | 342 | 0.0 | 3.0 | 0.04 | 1.47 | 1.47 | 91 | 1010.4 |
| 20260509150059 | 55 | 291 | 0.0 | 4.0 | 0.13 | 1.47 | 1.47 | 92 | 1010.4 |
| 20260509144603 | 55 | 282 | 3.0 | 16.0 | 0.31 | 1.47 | 1.47 | 93 | 1010.6 |
| 20260509143104 | 55 | 26 | 5.0 | 11.0 | 0.43 | 1.46 | 1.46 | 92 | 1011.7 |
| 20260509141540 | 55 | 40 | 1.0 | 3.0 | 0.45 | 1.43 | 1.43 | 93 | 1012.2 |
| 20260509140022 | 55 | 276 | 1.0 | 8.0 | 0.37 | 1.34 | 1.34 | 93 | 1012.6 |
| 20260509134518 | 55 | 266 | 4.0 | 8.0 | 0.21 | 1.15 | 1.15 | 93 | 1012.7 |
| 20260509133010 | 55 | 244 | 2.0 | 8.0 | 0.11 | 1.03 | 1.03 | 92 | 1012.5 |
| 20260509131511 | 55 | 271 | 4.0 | 12.0 | 0.14 | 0.98 | 0.98 | 91 | 1012.2 |
| 20260509124656 | 56 | 193 | 1.0 | 3.0 | 0.36 | 0.94 | 0.94 | 93 | 1011.3 |
| 20260509123102 | 56 | 330 | 0.0 | 4.0 | 0.51 | 0.92 | 0.92 | 93 | 1011.1 |
| 20260509121612 | 54 | 127 | 2.0 | 5.0 | 0.49 | 0.84 | 0.84 | 91 | 1011.2 |
| 20260509120007 | 54 | 328 | 2.0 | 9.0 | 0.54 | 0.77 | 0.77 | 88 | 1011.3 |
| 20260509113019 | 56 | 356 | 1.0 | 7.0 | 0.40 | 0.40 | 0.40 | 91 | 1011.9 |
| 20260509111614 | 56 | 44 | 0.0 | 6.0 | 0.35 | 0.35 | 0.35 | 91 | 1011.8 |
| 20260509110117 | 57 | 52 | 8.0 | 13.0 | 0.24 | 0.24 | 0.24 | 91 | 1011.9 |
| 20260509104622 | 58 | 5 | 3.0 | 6.0 | 0.06 | 0.06 | 0.06 | 90 | 1011.9 |
| 20260509103150 | 58 | 21 | 1.0 | 3.0 | 0.00 | 0.00 | 0.00 | 88 | 1011.9 |
| 20260509101515 | 58 | 56 | 0.0 | 2.0 | 0.00 | 0.00 | 0.00 | 90 | 1012.1 |
| 20260509100004 | 58 | 63 | 0.0 | 3.0 | 0.00 | 0.00 | 0.00 | 90 | 1012.3 |
| 20260509094656 | 58 | 67 | 3.0 | 7.0 | 0.00 | 0.00 | 0.00 | 90 | 1012.0 |
| 20260509093010 | 58 | 34 | 3.0 | 8.0 | 0.00 | 0.00 | 0.00 | 91 | 1012.2 |
| 20260509091506 | 58 | 33 | 5.0 | 10.0 | 0.00 | 0.00 | 0.00 | 91 | 1012.2 |
| 20260509090144 | 57 | 342 | 2.0 | 6.0 | 0.00 | 0.00 | 0.00 | 91 | 1012.3 |
| 20260509084648 | 57 | 34 | 2.0 | 5.0 | 0.00 | 0.00 | 0.00 | 91 | 1012.5 |
| 20260509081653 | 57 | 50 | 2.0 | 9.0 | 0.00 | 0.00 | 0.00 | 90 | 1012.1 |
| 20260509080149 | 58 | 44 | 3.0 | 8.0 | 0.00 | 0.00 | 0.00 | 89 | 1012.2 |
| 20260509074515 | 58 | 342 | 1.0 | 4.0 | 0.00 | 0.00 | 0.00 | 88 | 1011.7 |
| 20260509073021 | 58 | 275 | 1.0 | 4.0 | 0.00 | 0.00 | 0.00 | 87 | 1011.4 |